Regional Weather Roundup
Issued by NWS Charleston, SC

Current Version | Previous Version | Text Only | Print | Product List | Glossary Off
Versions: 1 2 3 4 5 6 7 8 9 10 11 12 13 14 15 16 17 18 19 20 21 22 23 24 25 26 27 28 29 30 31 32 33 34 35 36 37 38 39 40 41 42 43 44 45 46 47 48 49 50

441
ASUS42 KCHS 260112
RWRCHS

REGIONAL WEATHER ROUNDUP
NATIONAL WEATHER SERVICE CHARLESTON SC
900 PM EDT SAT MAR 25 2017

NOTE: "FAIR" INDICATES FEW OR NO CLOUDS BELOW 12,000 FEET WITH NO
SIGNIFICANT WEATHER AND/OR OBSTRUCTIONS TO VISIBILITY.

NOT ALL STATIONS ARE QUALITY CONTROLLED. USE DATA WITH CAUTION...
ESPECIALLY DEWPOINT OBSERVATIONS.

SCZ027-030-031-034>040-042>050-260200-
...SOUTHEAST SOUTH CAROLINA...

CITY           SKY/WX    TMP DP  RH WIND       PRES   REMARKS
N CHARLESTON   PTCLDY    63  55  75 SE7       30.23R
WATERFRONT PRK   N/A     62  60  93 CALM      30.22R
JOHNS ISLAND   FAIR      63  59  88 CALM      30.23R
PINOPOLIS        N/A     64  57  77 VRB2      30.13S
MONCKS CORNER  FAIR      63  54  72 CALM      30.23R
SUMMERVILLE    FAIR      63  54  72 CALM      30.23S
BEAUFORT MCAS  CLEAR     65  59  81 E6        30.21S
BEAUFORT ARPT  FAIR      63  57  82 SE3       30.21S
HILTON HEAD IS CLEAR     64  59  82 CALM      30.22R
WALTERBORO     CLEAR     63  54  72 E3        30.22S
ALLENDALE      FAIR      66  54  63 SE7       30.20R

...SOUTHERN MIDLANDS AND PEE DEE...

CITY           SKY/WX    TMP DP  RH WIND       PRES   REMARKS
GEORGETOWN     FAIR      61  55  82 CALM      30.25S
KINGSTREE      FAIR      63  52  67 SE5       30.24R
ORANGEBURG     PTCLDY    65  52  62 SE6       30.21R
BARNWELL       FAIR      68  55  64 SE7       30.20R
AIKEN          FAIR      66  52  59 SE9       30.22R
MANNING        FAIR      63  54  72 CALM      30.23R
COLUMBIA       MOCLDY    70  51  51 SE9       30.20R
SUMTER         CLEAR     65  54  65 SE9       30.20R
FLORENCE       PTCLDY    64  54  69 S7        30.23R
MYRTLE BEACH   PTCLDY    64  55  72 S12       30.25
N MYRTLE BEACH PTCLDY    64  56  75 SE6       30.25R

$$

GAZ063-065-086>088-099>101-113>116-118-119-134>141-150-260200-
...SOUTHEAST GEORGIA...

CITY           SKY/WX    TMP DP  RH WIND       PRES   REMARKS
SAVANNAH ARPT  CLEAR     66  53  63 SE8       30.20R
HUNTER AAF     CLEAR     64  57  78 E7        30.18R
FORT STEWART   CLEAR     64  55  74 E3        30.17R
STATESBORO     CLEAR     68  57  68 SE6       30.19R
SYLVANIA       CLEAR    N/A N/A N/A SE3       30.20R
CLAXTON        FAIR     N/A N/A N/A E6        30.19R

...CSRA...CENTRAL AND FAR SOUTHEAST GEORGIA...

CITY           SKY/WX    TMP DP  RH WIND       PRES   REMARKS
THOMSON        CLOUDY    70  51  51 S6        30.20S
AUGUSTA-BUSH   MOCLDY    71  53  52 SE13      30.17R
AUGUSTA-DANIEL CLOUDY    71  50  47 SE12G17   30.18R
SWAINSBORO     FAIR      68  54  60 SE10      30.18R
VIDALIA        CLEAR     70  55  60 SE8       30.17R
EASTMAN        MOCLDY    72  44  36 SE5       30.16S
HAZLEHURST     FAIR      71  58  64 SE5       30.15R
ALMA           CLEAR     68  57  68 SE7       30.15R
WAYCROSS       CLEAR     71  61  71 SE10      30.16R
JESUP          FAIR      64  55  72 SE3       30.18S
BAXLEY         FAIR      70  59  68 SE3       30.16R
BRUNSWICK      CLEAR     68  61  77 SE6       30.19R
SAINT SIMONS   CLEAR     66  60  81 E7        30.17S

$$

SCZ027-028-034-036>038-045-046-048>050-GAZ119-141-260200-
...LAKE AND SUPPLEMENTAL COASTAL OBSERVATIONS...

STATION/POSITION TIME  TEMP    WIND        PRES    WAVE   SWELL
                       AIR SEA DIR/SP/G            HT/PER HT/PER/DIR
                 (UTC) (F)     (DEG/KT/KT) (MB)    (FT/S) (FT/S/D)
WINYAH BAY       2345   64     130/  3     1024.0
LAKE MURRAY      0020   68     150/  6/  8 1021.3R
ACE BASIN NERRS  2345   65     120/  1     1023.0
FORT PULASKI     0030   64 62  130/  6/  7 1022.9R
SAPELO ISLAND    0000   66     110/  5     1022.0

$$

ANZ835-935-AMZ111-154-330-350-352-354-370-450-454-472-260200-
...C-MAN AND BUOY OBSERVATIONS...

STATION/POSITION TIME  TEMP    WIND        PRES    WAVE   SWELL
                       AIR SEA DIR/SP/G            HT/PER HT/PER/DIR
                 (UTC) (F)     (DEG/KT/KT) (MB)    (FT/S) (FT/S/D)
BUOY 41004       0050   71 71  120/ 14/ 17 1023.1R   4/ 7   3/110/ 7
BUOY 41008       0050   64 62  110/  6/ 10 1022.1R   4/ 8   3/120/ 8
FOLLY BEACH CMAN 0000   62      90/  5/  5 1023.9R
CAPERS NEARSHORE 0008   63     120/  6/ 10 1023.2S
FRIPP NEARSHORE  0008   62 60  100/  6/  8 1022.6R


STATION/POSITION TIME  TEMP    WIND        PRES    WAVE   SWELL
                       AIR SEA DIR/SP/G            HT/PER HT/PER/DIR
                 (UTC) (F)     (DEG/KT/KT) (MB)    (FT/S) (FT/S/D)
5E ST. MARYS GA  0030      65                N/A     4/ 9   2/110/11
FRYING PAN BUOY  0050          160/ 10/ 14 1024.8R   4/ 8   3/150/ 8
BUOY 41025       0050   70 76  190/ 17/ 21 1025.2R   4/ 5   2/110/ 9
CAPE LOOKOUT NC  0000   66     230/  3/  4 1025.0R
BUOY 41002       0050   67 73   80/ 10/ 12 1026.4R   5/ 8   5/130/ 8
BUOY 41010       NOT AVBL
ST AUGUSTINE FL  0100   68 69  130/ 12/ 13 1022.4S


$$




USA.gov is the U.S. government's official web portal to all federal, state and local government web resources and services.